Weather History for Tampa Macdill AFB, FL

Change the Weather History Date:

Monday, July 29, 2013

  Actual Average Record
Temperature  
Mean Temperature 82 °F -  
Max Temperature 92 °F 88 °F 98 °F (1996)
Min Temperature 73 °F 73 °F 71 °F (2002)
Cooling Degree Days 18    
Growing Degree Days 32 (Base 50)    
Moisture  
Dew Point 75 °F    
Average Humidity 78    
Maximum Humidity 100    
Minimum Humidity 52    
Precipitation  
Precipitation 0.00 in - - ()
Sea Level Pressure  
Sea Level Pressure 30.11 in    
Wind  
Wind Speed 5 mph (SSE)    
Max Wind Speed 16 mph    
Max Gust Speed 24 mph    
Visibility 10 miles    
Events Thunderstorm    
Averages and records for this station are not official NWS values.
T = Trace of Precipitation, MM = Missing Value Source: NWS Daily Summary

Daily Weather History Graph

Daily Weather History Graph

Search for Another Location

Airport:

Trip Planner

Search our weather history database for the weather conditions in past years. The results will help you decide how hot, cold, wet, or windy it might be!

Date:

Astronomy

Jul. 29, 2013 Rise Set
Actual Time 6:51 AM EDT 8:21 PM EDT
Civil Twilight 6:25 AM EDT 8:46 PM EDT
Nautical Twilight 5:55 AM EDT 9:17 PM EDT
Astronomical Twilight 5:23 AM EDT 9:48 PM EDT
Moon 12:24 AM EDT (7/29) 1:47 PM EDT (7/29)
Length of Visible Light 14h 20m
Length of Day
13h 29m
Waning Gibbous, 51% of the Moon is Illuminated
Jul 29
Waning Gibbous
Jul 29
Last Quarter
Aug 6
New
Aug 14
First Quarter
Aug 20
Full

Hourly Weather History & Observations

Time (EDT) Temp. Heat Index Dew Point Humidity Pressure Visibility Wind Dir Wind Speed Gust Speed Precip Events Conditions
12:58 AM 76.1 °F - 76.1 °F 100% 30.08 in 10.0 mi SE 5.8 mph - N/A   Clear
1:58 AM 75.9 °F - 75.4 °F 98% 30.07 in 10.0 mi SE 4.6 mph - N/A   Clear
2:58 AM 75.2 °F - 74.3 °F 97% 30.05 in 10.0 mi SE 5.8 mph - N/A   Clear
3:58 AM 73.8 °F - 73.6 °F 99% 30.05 in 10.0 mi ESE 4.6 mph - N/A   Clear
4:58 AM 76.1 °F - 75.6 °F 98% 30.05 in 10.0 mi SSE 3.5 mph - N/A   Clear
5:58 AM 74.8 °F - 73.6 °F 96% 30.07 in 10.0 mi SSW 4.6 mph - N/A   Clear
6:58 AM 73.8 °F - 73.0 °F 98% 30.09 in 10.0 mi NE 2.3 mph - N/A   Clear
7:58 AM 76.3 °F - 76.3 °F 100% 30.10 in 10.0 mi East 3.5 mph - N/A   Clear
8:58 AM 82.9 °F 93.4 °F 78.8 °F 87% 30.13 in 10.0 mi East 3.5 mph - N/A   Clear
9:58 AM 87.1 °F 99.8 °F 77.9 °F 74% 30.14 in 10.0 mi SW 1.2 mph - N/A   Partly Cloudy
10:58 AM 88.9 °F 105.2 °F 79.5 °F 74% 30.14 in 10.0 mi ESE 4.6 mph - N/A   Partly Cloudy
11:58 AM 90.3 °F 100.4 °F 74.8 °F 60% 30.15 in 10.0 mi Calm Calm - N/A   Clear
12:58 PM 89.2 °F 101.2 °F 76.5 °F 66% 30.13 in 10.0 mi SSW 5.8 mph - N/A   Clear
12:59 PM 89.6 °F 102.2 °F 77.0 °F 66% 30.12 in 10.0 mi Variable 5.8 mph - N/A   Light Drizzle
1:03 PM 89.6 °F 102.2 °F 77.0 °F 66% 30.12 in 10.0 mi South 6.9 mph - N/A   Partly Cloudy
1:58 PM 90.7 °F 99.6 °F 73.8 °F 57% 30.13 in 10.0 mi South 4.6 mph - 0.00 in   Scattered Clouds
2:58 PM 92.7 °F 103.0 °F 74.3 °F 55% 30.12 in 10.0 mi WSW 6.9 mph - N/A   Clear
3:58 PM 92.3 °F 100.3 °F 72.3 °F 52% 30.10 in 10.0 mi Variable 2.3 mph - N/A   Clear
4:58 PM 91.9 °F 100.1 °F 72.9 °F 53% 30.08 in 10.0 mi SW 6.9 mph - N/A   Clear
5:58 PM 92.1 °F 102.4 °F 74.5 °F 56% 30.09 in 10.0 mi SW 3.5 mph - N/A   Clear
6:58 PM 91.8 °F 102.8 °F 74.8 °F 58% 30.10 in 10.0 mi NW 4.6 mph - N/A   Clear
7:48 PM 84.2 °F 94.1 °F 77.0 °F 79% 30.09 in 10.0 mi SSE 15.0 mph 24.2 mph N/A Thunderstorm Thunderstorm
7:58 PM 82.9 °F 91.5 °F 76.5 °F 81% 30.11 in 10.0 mi South 16.1 mph 21.9 mph N/A Thunderstorm Thunderstorm
8:03 PM 82.4 °F 89.5 °F 75.2 °F 79% 30.11 in 10.0 mi SSE 12.7 mph 21.9 mph N/A Thunderstorm Partly Cloudy
8:58 PM 82.9 °F 90.5 °F 75.6 °F 78% 30.13 in 10.0 mi South 5.8 mph - N/A   Partly Cloudy
9:58 PM 82.0 °F 89.4 °F 76.1 °F 82% 30.16 in 10.0 mi SE 5.8 mph - N/A   Clear
10:58 PM 81.0 °F 86.9 °F 75.2 °F 83% 30.16 in 10.0 mi SE 5.8 mph - N/A   Clear
11:58 PM 81.1 °F 86.8 °F 74.5 °F 80% 30.17 in 10.0 mi SSE 6.9 mph - N/A   Mostly Cloudy